Freeport, Bahamas

4:09 AM EST on February 12, 2016 (GMT -0500)
Grand Bahama International

Weather History for MYGF - March, 2014

Change the Weather History Date:

Wednesday, March 19, 2014

  Actual Average Record
Temperature  
Mean Temperature 70 °F -  
Max Temperature 78 °F 77 °F 86 °F (2003)
Min Temperature 63 °F 66 °F 55 °F (2011)
Cooling Degree Days 6    
Growing Degree Days 20 (Base 50)    
Moisture  
Dew Point 64 °F    
Average Humidity 70    
Maximum Humidity 100    
Minimum Humidity 50    
Precipitation  
Precipitation 0.00 in - - ()
Sea Level Pressure  
Sea Level Pressure 30.03 in    
Wind  
Wind Speed 6 mph ()    
Max Wind Speed 12 mph    
Max Gust Speed -    
Visibility 7.8 miles    
Events      
Averages and records for this station are not official NWS values.
T = Trace of Precipitation, MM = Missing Value Source: Averaged Metar Reports

Daily Weather History Graph

Daily Weather History Graph

Search for Another Location

Airport or City:

Trip Planner

Search our weather history database for the weather conditions in past years. The results will help you decide how hot, cold, wet, or windy it might be!

Date:

Astronomy

Mar. 19, 2014 Rise Set
Actual Time 7:19 AM EDT 7:25 PM EDT
Civil Twilight 6:56 AM EDT 7:48 PM EDT
Nautical Twilight 6:29 AM EDT 8:15 PM EDT
Astronomical Twilight 6:02 AM EDT 8:42 PM EDT
Moon 10:22 PM EDT (3/19) 9:01 AM EDT (3/19)
Length of Visible Light 12h 51m
Length of Day
12h 05m
Waning Gibbous, 91% of the Moon is Illuminated
Mar 19
Waning Gibbous
Mar 23
Last Quarter
Mar 30
New
Apr 7
First Quarter
Apr 15
Full

Hourly Weather History & Observations

Time (EDT) Temp. Dew Point Humidity Pressure Visibility Wind Dir Wind Speed Gust Speed Precip Events Conditions
7:00 AM 64.4 °F 64.4 °F 100% 30.01 in 6.2 mi Calm Calm - N/A   Partly Cloudy
8:00 AM 64 °F 64 °F 100% 30.02 in 12 mi ENE 3.5 mph - -   Partly Cloudy
8:00 AM 64.4 °F 64.4 °F 100% 30.02 in 6.2 mi ENE 3.5 mph - N/A   Mostly Cloudy
9:00 AM 71.6 °F 66.2 °F 83% 30.04 in 6.2 mi ENE 4.6 mph - N/A   Partly Cloudy
10:00 AM 75.2 °F 64.4 °F 69% 30.05 in 6.2 mi NE 8.1 mph - N/A   Partly Cloudy
11:00 AM 75 °F 64 °F 62% 30.06 in 12 mi NE 11.5 mph - -   Scattered Clouds
11:00 AM 75.2 °F 64.4 °F 69% 30.06 in 6.2 mi NE 11.5 mph - N/A   Partly Cloudy
12:00 PM 77.0 °F 60.8 °F 57% 30.06 in 6.2 mi NNE 10.4 mph - N/A   Partly Cloudy
1:00 PM 77.0 °F 64.4 °F 65% 30.05 in 6.2 mi North 11.5 mph - N/A   Partly Cloudy
2:00 PM 77 °F 64 °F 57% 30.03 in 12 mi NNE 11.5 mph - -   Scattered Clouds
2:00 PM 77.0 °F 64.4 °F 65% 30.03 in 6.2 mi NNE 11.5 mph - N/A   Partly Cloudy
3:00 PM 77.0 °F 62.6 °F 61% 30.02 in 6.2 mi NE 11.5 mph - N/A   Partly Cloudy
4:00 PM 77.0 °F 64.4 °F 65% 30.01 in 6.2 mi NNE 9.2 mph - N/A   Partly Cloudy
5:00 PM 78 °F 63 °F 50% 30.00 in 12 mi North 8.1 mph - -   Scattered Clouds
5:00 PM 78.8 °F 62.6 °F 57% 30.00 in 6.2 mi North 8.1 mph - N/A   Partly Cloudy
6:00 PM 77.0 °F 66.2 °F 69% 30.02 in 6.2 mi North 8.1 mph - N/A   Partly Cloudy
7:00 PM 77.0 °F 64.4 °F 65% 30.01 in - NNE 5.8 mph - N/A   Clear
8:00 PM 74 °F 65 °F 67% 30.02 in 12 mi ENE 3.5 mph - -   Scattered Clouds
8:00 PM 73.4 °F 64.4 °F 73% 30.02 in 6.2 mi ENE 3.5 mph - N/A   Partly Cloudy